Regional Weather Roundup
Issued by NWS

Home | Current Version | Previous Version | Text Only | Print | Product List | Glossary Off
Versions: 1 2 3 4 5 6 7 8 9 10 11 12 13 14 15 16 17 18 19 20 21 22 23 24 25 26 27 28 29 30 31 32 33 34 35 36 37 38 39 40 41 42 43 44 45 46 47 48 49 50

000
ASUS45 KPSR 030510
RWRAZ

ARIZONA HOURLY REGIONAL WEATHER ROUNDUP
NATIONAL WEATHER SERVICE PHOENIX AZ
1000 PM MST WED SEP 02 2015

NOTE: FAIR INDICATES FEW OR NO CLOUDS BELOW 12,000 FEET WITH NO
SIGNIFICANT WEATHER AND/OR OBSTRUCTIONS TO VISIBILITY.

AZZ001>003-036-030600-
NORTHWEST ARIZONA

CITY           SKY/WX    TMP DP  RH WIND       PRES   REMARKS
BULLHEAD CITY  CLEAR     93  41  16 SE10      29.77F
KINGMAN        PTCLDY    76  43  30 S12       29.99R
$$

AZZ004>008-015-016-018-030600-
NORTH CENTRAL ARIZONA

CITY           SKY/WX    TMP DP  RH WIND       PRES   REMARKS
GRAND CANYON   MOCLDY    55  45  68 CALM      30.25R
WILLIAMS       MOCLDY    63  37  39 S7        30.30F
PRESCOTT       PTCLDY    68  41  37 S3        30.14S
FLAGSTAFF      PTCLDY    53  41  63 CALM      30.29S
PAYSON         MOCLDY    68  41  37 CALM      30.18S
PAGE           PTCLDY    79  52  38 SW9G24    30.01F
$$

AZZ009>014-017-030600-
NORTHEAST ARIZONA

CITY           SKY/WX    TMP DP  RH WIND       PRES   REMARKS
WINSLOW        PTCLDY    66  55  67 E6        30.15F
SAINT JOHNS    MOCLDY    61  54  77 S3        30.20F
WINDOW ROCK    CLOUDY    57  50  77 SW3       30.28F
SHOW LOW       MOCLDY    59  50  72 S7        30.26F
$$

AZZ023-030600-
GREATER PHOENIX AREA

CITY           SKY/WX    TMP DP  RH WIND       PRES   REMARKS
PHOENIX        MOCLDY    92  54  27 SW5       29.83S
BUCKEYE        CLEAR     86  50  28 S6        29.84S
LUKE AFB       CLEAR     93  55  27 S3        29.83S
DEER VALLEY    PTCLDY    89  49  25 E3        29.86R
SCOTTSDALE     PTCLDY    90  51  26 CALM      29.88R
MESA-GATEWAY   PTCLDY    88  55  33 E5        29.87S
$$

AZZ027-028-030600-
SOUTHWEST MARICOPA COUNTY AND PINAL COUNTY

CITY           SKY/WX    TMP DP  RH WIND       PRES   REMARKS
CASA GRANDE    PTCLDY    90  52  27 CALM      29.86S
GILA BEND      CLEAR     91  45  20 SW7       29.81F
$$

AZZ503-504-507>509-030600-
SOUTHEAST ARIZONA

CITY           SKY/WX    TMP DP  RH WIND       PRES   REMARKS
TUCSON         MOCLDY    80  56  43 SE10      30.00S
DAVIS-MONTHAN  PTCLDY    81  58  45 SE13      29.98S
NOGALES        MOCLDY    69  63  81 E3        30.10R
SIERRA VISTA   MOCLDY    69  57  64 S9        30.17S
DOUGLAS        MOCLDY    69  60  73 SW5       30.14R
SAFFORD        CLOUDY    73  62  68 SE9       30.05F
$$

AZZ020-021-025-026-031-030600-
SOUTHWEST ARIZONA

CITY           SKY/WX    TMP DP  RH WIND       PRES   REMARKS
YUMA           MOCLDY    88  47  24 S9        29.77S
$$

CAZ031-033-041-043-047-048-061-030600-
SOUTHERN CALIFORNIA

CITY           SKY/WX    TMP DP  RH WIND       PRES   REMARKS
DOWNTOWN L.A.  CLEAR     68  60  75 CALM      29.92R
L.A. AIRPORT   PTCLDY    67  61  81 SW7       29.93R
SAN DIEGO      PTCLDY    70  58  65 NW3       29.95S
BURBANK        CLEAR     67  60  78 S3        29.93R
ONTARIO        PTCLDY    68  58  70 W12       29.94R
RIVERSIDE      CLEAR     69  59  70 W5        29.93R
PALM SPRINGS   MOCLDY    89  45  21 NW16      29.79R
EL CENTRO NAS  MOCLDY    89  45  21 NW10      29.76S
IMPERIAL       MOCLDY    89  48  24 NW7       29.74R
BLYTHE         CLEAR     88  53  30 S7        29.77R
NEEDLES        CLEAR     93  40  15 SW8       29.79R
$$

NVZ020-UTZ003-030600-
SOUTHERN NEVADA-UTAH

CITY           SKY/WX    TMP DP  RH WIND       PRES   REMARKS
LAS VEGAS      PTCLDY    90  35  14 S14       29.80R
SALT LAKE CITY MOCLDY    81  37  20 S14       29.86S
$$

NMZ009-TXZ055-030600-
NEW MEXICO-WEST TEXAS

CITY           SKY/WX    TMP DP  RH WIND       PRES   REMARKS
ALBUQUERQUE    MOCLDY    72  50  45 CALM      30.21S
EL PASO        CLOUDY    84  48  28 N9        30.06R
$$


........................KEY........................
SKY/WX - SKY CONDITION/WEATHER
TMP    - TEMPERATURE IN FAHRENHEIT
DP     - DEW POINT IN FAHRENHEIT
RH     - RELATIVE HUMIDITY IN PERCENT
WIND   - DIRECTION AND SPEED IN MILES PER HOUR (MPH)
VRB    - VARIABLE WIND DIRECTION
PRES   - MEAN SEA LEVEL PRESSURE IN INCHES OF MERCURY
         F - FALLING PRESSURE   R - RISING PRESSURE
         S - STEADY PRESSURE
VSB    - VISIBILITY IN MILES
HX     - HEAT INDEX IN FAHRENHEIT
WCI    - WIND CHILL INDEX IN FAHRENHEIT
TC     - TEMPERATURE IN CELSIUS WHICH IS ALSO KNOWN AS
         TEMPERATURE IN CENTIGRADE
AFB    - AIR FORCE BASE
         LUKE AFB IS LUKE AIR FORCE BASE
         DAVIS-MONTHAN IS DAVIS-MONTHAN AIR FORCE BASE
NAS    - NAVAL AIR STATION
         EL CENTRO NAS IS EL CENTRO NAVAL AIR STATION
N/A    - NOT AVAILABLE




USA.gov is the U.S. government's official web portal to all federal, state and local government web resources and services.